• In Germany
  • List of Countries
  • For 7 days
  • Water Temperature
  • Satellite Maps
  • Weather Map
  • Weather Widgets
  • user-avatar
    Login

    Hourly Weather Salzburg

    Today, 17 August, Thursday

    Time Temperature Precipitation Wind Pressure Humidity
    00:00 +10°C° 0 mm 1 mps 631 mmHg 91%
    01:00 +10°C° 0 mm 1 mps 630 mmHg 89%
    02:00 +9°C° 0 mm 1 mps 630 mmHg 88%
    03:00 +9°C° 0 mm 1 mps 630 mmHg 87%
    04:00 +9°C° 0 mm 1 mps 630 mmHg 86%
    05:00 +10°C° 0 mm 1 mps 630 mmHg 83%
    06:00 +11°C° 0 mm 1 mps 631 mmHg 80%
    07:00 +13°C° 0 mm 1 mps 631 mmHg 76%
    08:00 +15°C° 0 mm 1 mps 632 mmHg 66%
    09:00 +17°C° 0 mm 0 mps 633 mmHg 55%
    10:00 +20°C° 0 mm 0 mps 634 mmHg 45%
    11:00 +20°C° 0 mm 0 mps 634 mmHg 44%
    12:00 +23°C° 0 mm 1 mps 634 mmHg 42%
    13:00 +24°C° 0 mm 1 mps 634 mmHg 41%
    14:00 +23°C° 0 mm 1 mps 634 mmHg 44%
    15:00 +23°C° 0 mm 1 mps 633 mmHg 48%
    16:00 +22°C° 0 mm 1 mps 633 mmHg 51%
    17:00 +20°C° 0 mm 1 mps 632 mmHg 61%
    18:00 +18°C° 0 mm 1 mps 632 mmHg 71%
    19:00 +14°C° 0 mm 0 mps 631 mmHg 81%
    20:00 +14°C° 0 mm 1 mps 631 mmHg 83%
    21:00 +13°C° 0 mm 1 mps 631 mmHg 85%
    22:00 +12°C° 0 mm 1 mps 631 mmHg 88%
    23:00 +12°C° 0 mm 1 mps 631 mmHg 88%

    Tomorrow, 18 August, Friday

    Time Temperature Precipitation Wind Pressure Humidity
    00:00 +12°C° 0 mm 1 mps 631 mmHg 88%
    01:00 +11°C° 0 mm 1 mps 630 mmHg 88%
    02:00 +11°C° 0 mm 1 mps 630 mmHg 88%
    03:00 +11°C° 0 mm 1 mps 630 mmHg 87%
    04:00 +11°C° 0 mm 1 mps 630 mmHg 87%
    05:00 +12°C° 0 mm 1 mps 630 mmHg 84%
    06:00 +13°C° 0 mm 1 mps 630 mmHg 82%
    07:00 +14°C° 0 mm 1 mps 631 mmHg 79%
    08:00 +18°C° 0 mm 1 mps 631 mmHg 70%
    09:00 +20°C° 0 mm 1 mps 632 mmHg 61%
    10:00 +22°C° 0 mm 1 mps 633 mmHg 51%
    11:00 +23°C° 0 mm 2 mps 633 mmHg 49%
    12:00 +24°C° 0 mm 2 mps 633 mmHg 47%
    13:00 +25°C° 0 mm 2 mps 633 mmHg 44%
    14:00 +25°C° 0 mm 2 mps 632 mmHg 48%
    15:00 +24°C° 0 mm 2 mps 631 mmHg 51%
    16:00 +23°C° 0 mm 2 mps 631 mmHg 55%
    17:00 +20°C° 0.4 mm 2 mps 630 mmHg 64%
    18:00 +19°C° 0.4 mm 1 mps 629 mmHg 73%
    19:00 +16°C° 0.4 mm 1 mps 628 mmHg 82%
    20:00 +15°C° 0.6 mm 1 mps 628 mmHg 85%
    21:00 +14°C° 0.6 mm 2 mps 628 mmHg 89%
    22:00 +13°C° 0.6 mm 2 mps 628 mmHg 92%
    23:00 +12°C° 1.1 mm 2 mps 628 mmHg 94%

    Day after tomorrow, 19 August, Saturday

    Time Temperature Precipitation Wind Pressure Humidity
    00:00 +12°C° 1.1 mm 2 mps 628 mmHg 95%
    01:00 +12°C° 1.1 mm 2 mps 628 mmHg 97%
    02:00 +10°C° 2.2 mm 2 mps 628 mmHg 97%
    03:00 +10°C° 2.2 mm 2 mps 628 mmHg 97%
    04:00 +9°C° 2.2 mm 2 mps 628 mmHg 97%
    05:00 +9°C° 3.8 mm 2 mps 628 mmHg 97%
    06:00 +8°C° 3.8 mm 2 mps 628 mmHg 97%
    07:00 +7°C° 3.8 mm 2 mps 628 mmHg 97%
    08:00 +8°C° 1.8 mm 2 mps 628 mmHg 97%
    09:00 +8°C° 1.8 mm 2 mps 629 mmHg 96%
    10:00 +9°C° 1.8 mm 1 mps 629 mmHg 96%
    11:00 +9°C° 0.8 mm 1 mps 629 mmHg 94%
    12:00 +10°C° 0.8 mm 1 mps 629 mmHg 92%
    13:00 +10°C° 0.8 mm 1 mps 630 mmHg 91%
    14:00 +11°C° 0.4 mm 1 mps 630 mmHg 87%
    15:00 +11°C° 0.4 mm 1 mps 630 mmHg 83%
    16:00 +12°C° 0.4 mm 1 mps 630 mmHg 79%
    17:00 +11°C° 0.4 mm 1 mps 630 mmHg 84%
    18:00 +10°C° 0.4 mm 1 mps 630 mmHg 88%
    19:00 +9°C° 0.4 mm 1 mps 629 mmHg 92%
    20:00 +8°C° 0.1 mm 1 mps 629 mmHg 93%
    21:00 +8°C° 0.1 mm 1 mps 629 mmHg 94%
    22:00 +7°C° 0.1 mm 1 mps 629 mmHg 95%
    23:00 +7°C° 0 mm 1 mps 629 mmHg 96%

    20 August, Sunday

    Time Temperature Precipitation Wind Pressure Humidity
    00:00 +7°C° 0 mm 1 mps 629 mmHg 96%
    01:00 +7°C° 0 mm 1 mps 629 mmHg 96%
    02:00 +6°C° 0 mm 1 mps 629 mmHg 96%
    03:00 +6°C° 0 mm 1 mps 629 mmHg 96%
    04:00 +6°C° 0 mm 1 mps 629 mmHg 96%
    05:00 +7°C° 0 mm 1 mps 629 mmHg 95%
    06:00 +7°C° 0 mm 1 mps 630 mmHg 94%
    07:00 +8°C° 0 mm 1 mps 630 mmHg 93%
    08:00 +9°C° 0.1 mm 1 mps 631 mmHg 86%
    09:00 +10°C° 0.1 mm 1 mps 631 mmHg 78%
    10:00 +10°C° 0.1 mm 2 mps 631 mmHg 71%
    11:00 +12°C° 0.2 mm 2 mps 632 mmHg 67%
    12:00 +13°C° 0.2 mm 2 mps 632 mmHg 64%
    13:00 +13°C° 0.2 mm 2 mps 632 mmHg 60%
    14:00 +13°C° 0.2 mm 2 mps 632 mmHg 60%
    15:00 +13°C° 0.2 mm 2 mps 632 mmHg 61%
    16:00 +13°C° 0.2 mm 2 mps 631 mmHg 62%
    17:00 +10°C° 0.1 mm 2 mps 631 mmHg 70%
    18:00 +8°C° 0.1 mm 2 mps 631 mmHg 79%
    19:00 +7°C° 0.1 mm 1 mps 630 mmHg 88%
    20:00 +7°C° 0.1 mm 1 mps 630 mmHg 90%
    21:00 +6°C° 0.1 mm 1 mps 631 mmHg 93%
    22:00 +5°C° 0.1 mm 1 mps 631 mmHg 95%
    23:00 +5°C° 0 mm 1 mps 631 mmHg 95%

    21 August, Monday

    Time Temperature Precipitation Wind Pressure Humidity
    00:00 +5°C° 0 mm 1 mps 631 mmHg 95%
    01:00 +5°C° 0 mm 1 mps 631 mmHg 95%
    02:00 +4°C° 0 mm 1 mps 630 mmHg 94%
    03:00 +4°C° 0 mm 1 mps 630 mmHg 94%
    04:00 +4°C° 0 mm 1 mps 630 mmHg 94%
    05:00 +5°C° 0 mm 1 mps 630 mmHg 91%
    06:00 +6°C° 0 mm 1 mps 631 mmHg 88%
    07:00 +7°C° 0 mm 1 mps 631 mmHg 85%
    08:00 +9°C° 0 mm 1 mps 632 mmHg 73%
    09:00 +11°C° 0 mm 1 mps 633 mmHg 61%
    10:00 +14°C° 0 mm 1 mps 633 mmHg 49%
    11:00 +15°C° 0 mm 1 mps 633 mmHg 45%
    12:00 +15°C° 0 mm 2 mps 633 mmHg 41%
    13:00 +16°C° 0 mm 2 mps 633 mmHg 37%
    14:00 +16°C° 0 mm 2 mps 633 mmHg 39%
    15:00 +16°C° 0 mm 2 mps 632 mmHg 40%
    16:00 +16°C° 0 mm 2 mps 632 mmHg 42%
    17:00 +14°C° 0 mm 1 mps 632 mmHg 52%
    18:00 +12°C° 0 mm 1 mps 631 mmHg 62%
    19:00 +9°C° 0 mm 0 mps 630 mmHg 73%
    20:00 +10°C° 0 mm 1 mps 630 mmHg 72%
    21:00 +10°C° 0 mm 1 mps 631 mmHg 71%
    22:00 +10°C° 0 mm 1 mps 631 mmHg 70%
    23:00 +9°C° 0 mm 1 mps 630 mmHg 70%

    22 August, Tuesday

    Time Temperature Precipitation Wind Pressure Humidity
    00:00 +9°C° 0 mm 1 mps 630 mmHg 69%
    01:00 +8°C° 0 mm 1 mps 630 mmHg 69%
    02:00 +8°C° 0 mm 1 mps 629 mmHg 70%
    03:00 +8°C° 0 mm 1 mps 629 mmHg 70%
    04:00 +7°C° 0 mm 1 mps 628 mmHg 71%
    05:00 +8°C° 0 mm 1 mps 629 mmHg 69%
    06:00 +10°C° 0 mm 1 mps 629 mmHg 67%
    07:00 +11°C° 0 mm 1 mps 629 mmHg 65%
    08:00 +14°C° 0 mm 1 mps 630 mmHg 58%
    09:00 +18°C° 0 mm 1 mps 631 mmHg 51%
    10:00 +19°C° 0 mm 0 mps 632 mmHg 44%
    11:00 +22°C° 0 mm 1 mps 632 mmHg 42%
    12:00 +22°C° 0 mm 1 mps 632 mmHg 40%
    13:00 +23°C° 0 mm 1 mps 631 mmHg 39%
    14:00 +23°C° 0.1 mm 1 mps 631 mmHg 43%
    15:00 +21°C° 0.1 mm 2 mps 630 mmHg 47%
    16:00 +20°C° 0.1 mm 2 mps 630 mmHg 52%
    17:00 +19°C° 0.3 mm 1 mps 629 mmHg 62%
    18:00 +16°C° 0.3 mm 1 mps 628 mmHg 73%
    19:00 +13°C° 0.3 mm 1 mps 627 mmHg 84%
    20:00 +12°C° 0.3 mm 1 mps 627 mmHg 85%
    21:00 +12°C° 0.3 mm 1 mps 627 mmHg 85%
    22:00 +10°C° 0.3 mm 2 mps 627 mmHg 86%
    23:00 +10°C° 0.2 mm 2 mps 627 mmHg 87%
    Show more